Flag for Canada Weather past 2 weeks in North Bay, Ontario, Canada

Now
55 °F

Overcast.


Feels Like: 54 °F
Forecast: 50 / 68 °F
Wind: 7 mph from West

Location: North Bay

Current Time: May 28, 2015 at 2:12:51 AM

Latest Report: May 28, 2015 at 1:00 AM


Visibility: 9 mi

Pressure: 29.93 "Hg

Humidity: 94%

Dew point: 54 °F

Location of North BayLocation

Historic Weather in North Bay — Graph

°F

North Bay temperature yesterday

Maximum temperature yesterday: 70 °F (at 12:00 AM)
Minimum temperature yesterday: 57 °F (at 10:55 PM)
Average temperature yesterday: 66 °F

Past Weeks' High & Low Weather Summary

 TemperatureHumidityPressure
High77 °F (May 17, 6:00 PM)100% (May 13, 1:00 AM)30.46 "Hg (May 13, 1:00 AM)
Low28 °F (May 23, 12:00 AM)23% (May 13, 7:00 PM)29.77 "Hg (May 21, 6:00 PM)
Average53 °F72%30.05 "Hg
* Reported May 13 1:00 AM — May 28 1:00 AM, North Bay, Weather by CustomWeather, © 2015

Note: Actual official high and low records may vary slightly from our data, if they occured in-between our weather recording intervals... More about our weather records

Advertising

North Bay weather history for previous 24 hours

 ConditionsComfort  
Time TempWeatherWind HumidityBarometerVisibility
1:00 AM
Thu, May 28
55 °FOvercast.7 mph94%29.93 "Hg9 mi
12:00 AM55 °FOvercast.6 mph94%29.91 "Hg9 mi
11:00 PM
Wed, May 27
57 °FPassing clouds.10 mph88%29.89 "Hg9 mi
10:55 PM57 °FPassing clouds.13 mph88%29.88 "Hg9 mi
10:00 PM61 °FPartly cloudy.12 mph83%29.88 "Hg15 mi
9:00 PM64 °FPartly sunny.14 mph78%29.85 "Hg20 mi
8:00 PM68 °FPartly sunny.14 mph64%29.83 "Hg20 mi
7:00 PM68 °FBroken clouds.9 mph73%29.83 "Hg20 mi
6:00 PM70 °FPartly sunny.12 mph69%29.82 "Hg20 mi
5:00 PM70 °FPartly sunny.14 mph69%29.83 "Hg20 mi
4:00 PM70 °FPartly sunny.18 mph73%29.83 "Hg15 mi
3:00 PM68 °FPartly sunny.16 mph73%29.84 "Hg15 mi
2:00 PM68 °FPartly sunny.18 mph78%29.85 "Hg15 mi
1:00 PM66 °FSprinkles. Overcast.18 mph83%29.84 "Hg15 mi
12:00 PM66 °FSprinkles. Overcast.12 mph83%29.83 "Hg15 mi
11:00 AM66 °FSprinkles. Overcast.13 mph83%29.83 "Hg15 mi
10:46 AM66 °FSprinkles. Mostly cloudy.10 mph83%29.84 "Hg15 mi
10:00 AM66 °FPartly sunny.13 mph83%29.85 "Hg15 mi
9:00 AM63 °FPartly sunny.10 mph94%29.85 "Hg15 mi
8:00 AM64 °FOvercast.17 mph88%29.83 "Hg15 mi
7:00 AM64 °FOvercast.16 mph94%29.82 "Hg15 mi
6:00 AM64 °FOvercast.14 mph94%29.81 "Hg9 mi
5:00 AM64 °FOvercast.14 mph100%29.80 "Hg9 mi
4:03 AM64 °FLow clouds.15 mph100%29.80 "Hg9 mi
3:00 AM66 °FLight rain. Overcast.15 mph94%29.80 "Hg9 mi
2:03 AM68 °FLight rain. Overcast.17 mph88%29.82 "Hg9 mi
Weather by CustomWeather, © 2015

See weather overviewHow to use our weather pages